,,,PA_Meas_PMT16A,,PR_Meas_QMR101_102,,RH_Meas_QMH101,,SR_Meas_QMS101,,TA_Meas_QMH101,,GenWind,,GenWind,
date,time,status,PA,status,PR,status,RH,status,SR,status,TA,status,DirAvg,status,SpdAvg,
2011-07-24, 00:00:04,VALID,1008.407,VALID,0.0,VALID,104.0,VALID,0.106,VALID,23.752,VALID,53.0,VALID,0.747,
2011-07-24, 00:01:04,VALID,1008.381,VALID,0.0,VALID,104.0,VALID,0.106,VALID,23.752,VALID,44.0,VALID,0.468,
2011-07-24, 00:02:04,VALID,1008.374,VALID,0.0,VALID,104.0,VALID,0.106,VALID,23.752,VALID,38.0,VALID,0.242,
2011-07-24, 00:03:04,VALID,1008.366,VALID,0.0,VALID,104.0,VALID,0.0,VALID,23.713,VALID,39.0,VALID,0.884,
2011-07-24, 00:04:04,VALID,1008.394,VALID,0.0,VALID,104.0,VALID,0.0,VALID,23.733,VALID,33.0,VALID,0.88,
2011-07-24, 00:05:04,VALID,1008.402,VALID,0.0,VALID,104.0,VALID,0.0,VALID,23.713,VALID,37.0,VALID,1.219,
2011-07-24, 00:06:04,VALID,1008.405,VALID,0.0,VALID,104.0,VALID,0.0,VALID,23.713,VALID,43.0,VALID,0.365,
2011-07-24, 00:07:04,VALID,1008.386,VALID,0.0,VALID,104.0,VALID,0.0,VALID,23.694,VALID,5.0,VALID,0.769,
2011-07-24, 00:08:04,VALID,1008.355,VALID,0.0,VALID,104.0,VALID,0.0,VALID,23.694,VALID,358.0,VALID,0.57,
2011-07-24, 00:09:04,VALID,1008.359,VALID,0.0,VALID,104.0,VALID,0.106,VALID,23.694,VALID,26.0,VALID,0.644,
2011-07-24, 00:10:04,VALID,1008.351,VALID,0.0,VALID,104.0,VALID,0.0,VALID,23.675,VALID,25.0,VALID,0.461,
2011-07-24, 00:11:04,VALID,1008.406,VALID,0.0,VALID,104.0,VALID,0.106,VALID,23.675,VALID,27.0,VALID,0.215,
2011-07-24, 00:12:04,VALID,1008.375,VALID,0.0,VALID,104.0,VALID,0.0,VALID,23.655,VALID,32.0,VALID,0.964,
2011-07-24, 00:13:04,VALID,1008.376,VALID,0.0,VALID,104.0,VALID,0.0,VALID,23.675,VALID,37.0,VALID,0.579,
2011-07-24, 00:14:04,VALID,1008.369,VALID,0.0,VALID,104.0,VALID,0.0,VALID,23.636,VALID,37.0,VALID,0.645,
2011-07-24, 00:15:04,VALID,1008.337,VALID,0.0,VALID,104.0,VALID,0.106,VALID,23.614,VALID,30.0,VALID,0.359,
2011-07-24, 00:16:04,VALID,1008.31,VALID,0.0,VALID,104.0,VALID,0.0,VALID,23.636,VALID,29.0,VALID,0.26,
2011-07-24, 00:17:04,VALID,1008.314,VALID,0.0,VALID,104.0,VALID,0.0,VALID,23.597,VALID,29.0,VALID,0.296,
2011-07-24, 00:18:04,VALID,1008.308,VALID,0.0,VALID,104.0,VALID,0.0,VALID,23.597,VALID,358.0,VALID,0.439,
2011-07-24, 00:19:04,VALID,1008.304,VALID,0.0,VALID,104.0,VALID,0.0,VALID,23.577,VALID,49.0,VALID,0.309,
2011-07-24, 00:20:04,VALID,1008.336,VALID,0.0,VALID,104.0,VALID,0.0,VALID,23.558,VALID,35.0,VALID,0.157,
2011-07-24, 00:21:04,VALID,1008.343,VALID,0.0,VALID,104.0,VALID,0.0,VALID,23.538,VALID,117.0,VALID,0.473,
2011-07-24, 00:22:04,VALID,1008.329,VALID,0.0,VALID,104.0,VALID,0.0,VALID,23.538,VALID,81.0,VALID,0.507,
2011-07-24, 00:23:04,VALID,1008.301,VALID,0.0,VALID,104.0,VALID,0.0,VALID,23.497,VALID,79.0,VALID,0.587,
2011-07-24, 00:24:04,VALID,1008.266,VALID,0.0,VALID,104.0,VALID,0.0,VALID,23.499,VALID,20.0,VALID,0.445,
2011-07-24, 00:25:04,VALID,1008.252,VALID,0.0,VALID,104.0,VALID,0.0,VALID,23.499,VALID,20.0,VALID,0.207,
2011-07-24, 00:26:04,VALID,1008.249,VALID,0.0,VALID,104.0,VALID,0.0,VALID,23.48,VALID,20.0,VALID,0.148,
2011-07-24, 00:27:04,VALID,1008.253,VALID,0.0,VALID,104.0,VALID,0.0,VALID,23.46,VALID,20.0,VALID,0.0,
2011-07-24, 00:28:04,VALID,1008.252,VALID,0.0,VALID,104.0,VALID,0.0,VALID,23.46,VALID,20.0,VALID,0.0,
2011-07-24, 00:29:04,VALID,1008.231,VALID,0.0,VALID,104.0,VALID,0.0,VALID,23.441,VALID,24.0,VALID,0.418,
2011-07-24, 00:30:04,VALID,1008.237,VALID,0.0,VALID,104.0,VALID,0.0,VALID,23.441,VALID,51.0,VALID,0.542,
2011-07-24, 00:31:04,VALID,1008.193,VALID,0.0,VALID,104.0,VALID,0.0,VALID,23.441,VALID,52.0,VALID,0.848,
2011-07-24, 00:32:04,VALID,1008.175,VALID,0.0,VALID,104.0,VALID,0.0,VALID,23.421,VALID,72.0,VALID,0.631,
2011-07-24, 00:33:04,VALID,1008.165,VALID,0.0,VALID,104.0,VALID,0.0,VALID,23.421,VALID,80.0,VALID,1.062,
2011-07-24, 00:34:04,VALID,1008.161,VALID,0.0,VALID,104.0,VALID,0.0,VALID,23.421,VALID,64.0,VALID,0.542,
2011-07-24, 00:35:04,VALID,1008.156,VALID,0.0,VALID,104.0,VALID,0.0,VALID,23.421,VALID,91.0,VALID,0.399,
2011-07-24, 00:36:04,VALID,1008.155,VALID,0.0,VALID,104.0,VALID,0.106,VALID,23.421,VALID,89.0,VALID,0.458,
2011-07-24, 00:37:04,VALID,1008.189,VALID,0.0,VALID,104.0,VALID,0.0,VALID,23.421,VALID,91.0,VALID,0.536,
2011-07-24, 00:38:04,VALID,1008.25,VALID,0.0,VALID,104.0,VALID,0.106,VALID,23.421,VALID,103.0,VALID,0.638,
2011-07-24, 00:39:04,VALID,1008.278,VALID,0.0,VALID,104.0,VALID,0.0,VALID,23.421,VALID,124.0,VALID,0.664,
2011-07-24, 00:40:04,VALID,1008.333,VALID,0.0,VALID,104.0,VALID,0.0,VALID,23.421,VALID,96.0,VALID,0.862,
2011-07-24, 00:41:04,VALID,1008.324,VALID,0.0,VALID,104.0,VALID,0.0,VALID,23.421,VALID,95.0,VALID,0.478,
2011-07-24, 00:42:04,VALID,1008.335,VALID,0.0,VALID,104.0,VALID,0.0,VALID,23.421,VALID,142.0,VALID,0.951,
2011-07-24, 00:43:04,VALID,1008.351,VALID,0.0,VALID,104.0,VALID,0.0,VALID,23.421,VALID,122.0,VALID,0.948,
2011-07-24, 00:44:04,VALID,1008.351,VALID,0.0,VALID,104.0,VALID,0.0,VALID,23.441,VALID,113.0,VALID,0.69,
2011-07-24, 00:45:04,VALID,1008.377,VALID,0.0,VALID,104.0,VALID,0.0,VALID,23.441,VALID,125.0,VALID,0.602,
2011-07-24, 00:46:04,VALID,1008.382,VALID,0.0,VALID,104.0,VALID,0.0,VALID,23.421,VALID,154.0,VALID,0.838,
2011-07-24, 00:47:04,VALID,1008.364,VALID,0.0,VALID,104.0,VALID,0.0,VALID,23.402,VALID,150.0,VALID,0.635,
2011-07-24, 00:48:04,VALID,1008.349,VALID,0.0,VALID,104.0,VALID,0.0,VALID,23.402,VALID,125.0,VALID,0.831,
2011-07-24, 00:49:04,VALID,1008.317,VALID,0.0,VALID,104.0,VALID,0.0,VALID,23.402,VALID,126.0,VALID,0.663,
2011-07-24, 00:50:04,VALID,1008.269,VALID,0.0,VALID,104.0,VALID,0.0,VALID,23.402,VALID,101.0,VALID,0.545,
2011-07-24, 00:51:04,VALID,1008.241,VALID,0.0,VALID,104.0,VALID,0.0,VALID,23.382,VALID,101.0,VALID,0.384,
2011-07-24, 00:52:04,VALID,1008.221,VALID,0.0,VALID,104.0,VALID,0.0,VALID,23.402,VALID,97.0,VALID,0.673,
2011-07-24, 00:53:04,VALID,1008.191,VALID,0.0,VALID,104.0,VALID,0.0,VALID,23.382,VALID,95.0,VALID,0.916,
2011-07-24, 00:54:04,VALID,1008.183,VALID,0.0,VALID,104.0,VALID,0.0,VALID,23.402,VALID,104.0,VALID,0.879,
2011-07-24, 00:55:04,VALID,1008.186,VALID,0.0,VALID,104.0,VALID,0.0,VALID,23.402,VALID,103.0,VALID,1.382,
2011-07-24, 00:56:04,VALID,1008.18,VALID,0.0,VALID,104.0,VALID,0.106,VALID,23.421,VALID,89.0,VALID,0.463,
2011-07-24, 00:57:04,VALID,1008.147,VALID,0.0,VALID,104.0,VALID,0.0,VALID,23.402,VALID,97.0,VALID,0.647,
2011-07-24, 00:58:04,VALID,1008.136,VALID,0.0,VALID,104.0,VALID,0.0,VALID,23.421,VALID,114.0,VALID,0.45,
2011-07-24, 00:59:04,VALID,1008.165,VALID,0.0,VALID,104.0,VALID,0.0,VALID,23.402,VALID,109.0,VALID,0.578,
2011-07-24, 01:00:04,VALID,1008.165,VALID,0.0,VALID,104.0,VALID,0.0,VALID,23.382,VALID,110.0,VALID,0.8,
2011-07-24, 01:01:04,VALID,1008.142,VALID,0.0,VALID,104.0,VALID,0.0,VALID,23.402,VALID,115.0,VALID,0.995,
2011-07-24, 01:02:04,VALID,1008.13,VALID,0.0,VALID,104.0,VALID,0.0,VALID,23.402,VALID,113.0,VALID,0.884,
2011-07-24, 01:03:04,VALID,1008.076,VALID,0.0,VALID,104.0,VALID,0.0,VALID,23.382,VALID,92.0,VALID,0.609,
2011-07-24, 01:04:04,VALID,1008.039,VALID,0.0,VALID,104.0,VALID,0.0,VALID,23.382,VALID,81.0,VALID,1.003,
2011-07-24, 01:05:04,VALID,1008.045,VALID,0.0,VALID,104.0,VALID,0.0,VALID,23.384,VALID,106.0,VALID,1.011,
2011-07-24, 01:06:04,VALID,1008.026,VALID,0.0,VALID,104.0,VALID,0.0,VALID,23.384,VALID,116.0,VALID,0.825,
2011-07-24, 01:07:04,VALID,1008.013,VALID,0.0,VALID,104.0,VALID,0.0,VALID,23.343,VALID,105.0,VALID,0.715,
2011-07-24, 01:08:04,VALID,1008.035,VALID,0.0,VALID,104.0,VALID,0.0,VALID,23.365,VALID,99.0,VALID,0.547,
2011-07-24, 01:09:04,VALID,1008.016,VALID,0.0,VALID,104.0,VALID,0.0,VALID,23.345,VALID,102.0,VALID,0.8,
2011-07-24, 01:10:04,VALID,1008.033,VALID,0.0,VALID,104.0,VALID,0.0,VALID,23.345,VALID,87.0,VALID,0.829,
2011-07-24, 01:11:04,VALID,1007.998,VALID,0.0,VALID,104.0,VALID,0.0,VALID,23.345,VALID,111.0,VALID,0.66,
2011-07-24, 01:12:04,VALID,1008.019,VALID,0.0,VALID,104.0,VALID,0.0,VALID,23.345,VALID,112.0,VALID,0.538,
2011-07-24, 01:13:04,VALID,1008.003,VALID,0.0,VALID,104.0,VALID,0.0,VALID,23.345,VALID,112.0,VALID,0.19,
2011-07-24, 01:14:04,VALID,1008.003,VALID,0.0,VALID,104.0,VALID,0.0,VALID,23.345,VALID,112.0,VALID,0.407,
2011-07-24, 01:15:04,VALID,1008.037,VALID,0.0,VALID,104.0,VALID,0.0,VALID,23.326,VALID,111.0,VALID,0.268,
2011-07-24, 01:16:04,VALID,1008.049,VALID,0.0,VALID,104.0,VALID,0.0,VALID,23.326,VALID,114.0,VALID,0.489,
2011-07-24, 01:17:04,VALID,1008.066,VALID,0.0,VALID,104.0,VALID,0.0,VALID,23.306,VALID,140.0,VALID,0.699,
2011-07-24, 01:18:04,VALID,1008.083,VALID,0.0,VALID,104.0,VALID,0.0,VALID,23.285,VALID,140.0,VALID,0.484,
2011-07-24, 01:19:04,VALID,1008.11,VALID,0.0,VALID,104.0,VALID,0.0,VALID,23.265,VALID,146.0,VALID,0.357,
2011-07-24, 01:20:04,VALID,1008.163,VALID,0.0,VALID,104.0,VALID,0.0,VALID,23.265,VALID,146.0,VALID,0.314,
2011-07-24, 01:21:04,VALID,1008.18,VALID,0.0,VALID,104.0,VALID,0.0,VALID,23.265,VALID,146.0,VALID,0.176,
2011-07-24, 01:22:04,VALID,1008.176,VALID,0.0,VALID,104.0,VALID,0.0,VALID,23.225,VALID,146.0,VALID,0.0,
2011-07-24, 01:23:04,VALID,1008.192,VALID,0.0,VALID,104.0,VALID,0.106,VALID,23.265,VALID,146.0,VALID,0.0,
2011-07-24, 01:24:04,VALID,1008.201,VALID,0.0,VALID,104.0,VALID,0.0,VALID,23.246,VALID,146.0,VALID,0.0,
2011-07-24, 01:25:04,VALID,1008.194,VALID,0.0,VALID,104.0,VALID,0.0,VALID,23.246,VALID,146.0,VALID,0.246,
2011-07-24, 01:26:04,VALID,1008.201,VALID,0.0,VALID,104.0,VALID,0.0,VALID,23.265,VALID,146.0,VALID,0.257,
2011-07-24, 01:27:04,VALID,1008.221,VALID,0.0,VALID,104.0,VALID,0.0,VALID,23.265,VALID,146.0,VALID,0.539,
2011-07-24, 01:28:04,VALID,1008.202,VALID,0.0,VALID,104.0,VALID,0.0,VALID,23.285,VALID,146.0,VALID,0.435,
2011-07-24, 01:29:04,VALID,1008.216,VALID,0.0,VALID,104.0,VALID,0.0,VALID,23.265,VALID,146.0,VALID,0.359,
2011-07-24, 01:30:04,VALID,1008.222,VALID,0.0,VALID,104.0,VALID,0.0,VALID,23.246,VALID,146.0,VALID,0.263,
2011-07-24, 01:31:04,VALID,1008.211,VALID,0.0,VALID,104.0,VALID,0.0,VALID,23.246,VALID,147.0,VALID,0.864,
2011-07-24, 01:32:04,VALID,1008.267,VALID,0.0,VALID,104.0,VALID,0.0,VALID,23.246,VALID,165.0,VALID,1.408,
2011-07-24, 01:33:04,VALID,1008.236,VALID,0.0,VALID,104.0,VALID,0.0,VALID,23.246,VALID,164.0,VALID,0.336,
2011-07-24, 01:34:04,VALID,1008.209,VALID,0.0,VALID,104.0,VALID,0.106,VALID,23.225,VALID,39.0,VALID,0.63,
2011-07-24, 01:35:04,VALID,1008.263,VALID,0.0,VALID,104.0,VALID,0.106,VALID,23.246,VALID,29.0,VALID,0.516,
2011-07-24, 01:36:04,VALID,1008.302,VALID,0.0,VALID,104.0,VALID,0.0,VALID,23.246,VALID,162.0,VALID,1.159,
2011-07-24, 01:37:04,VALID,1008.21,VALID,0.0,VALID,104.0,VALID,0.0,VALID,23.246,VALID,162.0,VALID,0.178,
2011-07-24, 01:38:04,VALID,1008.218,VALID,0.0,VALID,104.0,VALID,0.0,VALID,23.226,VALID,162.0,VALID,0.273,
2011-07-24, 01:39:04,VALID,1008.244,VALID,0.0,VALID,104.0,VALID,0.0,VALID,23.246,VALID,73.0,VALID,0.578,
2011-07-24, 01:40:04,VALID,1008.25,VALID,0.0,VALID,104.0,VALID,0.0,VALID,23.265,VALID,87.0,VALID,0.389,
2011-07-24, 01:41:04,VALID,1008.264,VALID,0.0,VALID,104.0,VALID,0.0,VALID,23.285,VALID,169.0,VALID,0.75,
2011-07-24, 01:42:04,VALID,1008.208,VALID,0.0,VALID,104.0,VALID,0.0,VALID,23.285,VALID,166.0,VALID,0.407,
2011-07-24, 01:43:04,VALID,1008.223,VALID,0.0,VALID,104.0,VALID,0.106,VALID,23.283,VALID,73.0,VALID,0.698,
2011-07-24, 01:44:04,VALID,1008.222,VALID,0.0,VALID,104.0,VALID,0.106,VALID,23.324,VALID,61.0,VALID,0.893,
2011-07-24, 01:45:04,VALID,1008.234,VALID,0.0,VALID,104.0,VALID,0.0,VALID,23.342,VALID,109.0,VALID,0.723,
2011-07-24, 01:46:04,VALID,1008.215,VALID,0.0,VALID,104.0,VALID,0.0,VALID,23.441,VALID,114.0,VALID,0.876,
2011-07-24, 01:47:04,VALID,1008.186,VALID,0.0,VALID,104.0,VALID,0.0,VALID,23.48,VALID,127.0,VALID,0.486,
2011-07-24, 01:48:04,VALID,1008.21,VALID,0.0,VALID,103.916,VALID,0.0,VALID,23.46,VALID,146.0,VALID,0.474,
2011-07-24, 01:49:04,VALID,1008.159,VALID,0.0,VALID,103.733,VALID,0.106,VALID,23.458,VALID,102.0,VALID,0.472,
2011-07-24, 01:50:04,VALID,1008.16,VALID,0.0,VALID,103.634,VALID,0.0,VALID,23.48,VALID,85.0,VALID,0.557,
2011-07-24, 01:51:04,VALID,1008.175,VALID,0.0,VALID,103.542,VALID,0.106,VALID,23.519,VALID,124.0,VALID,0.727,
2011-07-24, 01:52:04,VALID,1008.161,VALID,0.0,VALID,103.451,VALID,0.0,VALID,23.519,VALID,133.0,VALID,0.708,
2011-07-24, 01:53:04,VALID,1008.155,VALID,0.0,VALID,103.359,VALID,0.0,VALID,23.538,VALID,138.0,VALID,0.799,
2011-07-24, 01:54:04,VALID,1008.166,VALID,0.0,VALID,103.245,VALID,0.106,VALID,23.519,VALID,137.0,VALID,0.828,
2011-07-24, 01:55:04,VALID,1008.151,VALID,0.0,VALID,103.054,VALID,0.0,VALID,23.519,VALID,114.0,VALID,0.72,
2011-07-24, 01:56:04,VALID,1008.104,VALID,0.0,VALID,102.94,VALID,0.0,VALID,23.519,VALID,89.0,VALID,0.552,
2011-07-24, 01:57:04,VALID,1008.086,VALID,0.0,VALID,102.894,VALID,0.0,VALID,23.538,VALID,85.0,VALID,0.759,
2011-07-24, 01:58:04,VALID,1008.077,VALID,0.0,VALID,102.917,VALID,0.0,VALID,23.538,VALID,67.0,VALID,0.831,
2011-07-24, 01:59:04,VALID,1008.069,VALID,0.0,VALID,102.91,VALID,0.0,VALID,23.558,VALID,98.0,VALID,0.386,
2011-07-24, 02:00:04,VALID,1008.063,VALID,0.0,VALID,102.917,VALID,0.0,VALID,23.558,VALID,98.0,VALID,0.564,
2011-07-24, 02:01:04,VALID,1008.076,VALID,0.0,VALID,102.94,VALID,0.106,VALID,23.558,VALID,98.0,VALID,0.244,
2011-07-24, 02:02:04,VALID,1008.077,VALID,0.0,VALID,102.925,VALID,0.0,VALID,23.558,VALID,98.0,VALID,0.426,
2011-07-24, 02:03:04,VALID,1008.08,VALID,0.0,VALID,102.879,VALID,0.0,VALID,23.559,VALID,64.0,VALID,0.786,
2011-07-24, 02:04:04,VALID,1008.069,VALID,0.0,VALID,102.94,VALID,0.0,VALID,23.559,VALID,50.0,VALID,0.912,
2011-07-24, 02:05:04,VALID,1008.124,VALID,0.0,VALID,102.925,VALID,0.0,VALID,23.54,VALID,50.0,VALID,0.559,
2011-07-24, 02:06:04,VALID,1008.098,VALID,0.0,VALID,103.001,VALID,0.0,VALID,23.54,VALID,50.0,VALID,0.822,
2011-07-24, 02:07:04,VALID,1008.114,VALID,0.0,VALID,103.085,VALID,0.0,VALID,23.52,VALID,47.0,VALID,0.805,
2011-07-24, 02:08:04,VALID,1008.067,VALID,0.0,VALID,103.085,VALID,0.0,VALID,23.501,VALID,36.0,VALID,0.706,
2011-07-24, 02:09:04,VALID,1008.104,VALID,0.0,VALID,103.161,VALID,0.0,VALID,23.481,VALID,38.0,VALID,0.273,
2011-07-24, 02:10:04,VALID,1008.112,VALID,0.0,VALID,103.222,VALID,0.0,VALID,23.462,VALID,38.0,VALID,0.229,
2011-07-24, 02:11:04,VALID,1008.117,VALID,0.0,VALID,103.306,VALID,0.0,VALID,23.481,VALID,38.0,VALID,0.254,
2011-07-24, 02:12:04,VALID,1008.104,VALID,0.0,VALID,103.329,VALID,0.0,VALID,23.481,VALID,38.0,VALID,0.28,
2011-07-24, 02:13:04,VALID,1008.068,VALID,0.0,VALID,103.321,VALID,0.0,VALID,23.481,VALID,38.0,VALID,0.177,
2011-07-24, 02:14:04,VALID,1008.066,VALID,0.0,VALID,103.344,VALID,0.0,VALID,23.481,VALID,38.0,VALID,0.432,
2011-07-24, 02:15:04,VALID,1008.077,VALID,0.0,VALID,103.375,VALID,0.0,VALID,23.481,VALID,41.0,VALID,0.614,
2011-07-24, 02:16:04,VALID,1008.079,VALID,0.0,VALID,103.459,VALID,0.0,VALID,23.46,VALID,56.0,VALID,0.648,
2011-07-24, 02:17:04,VALID,1008.049,VALID,0.0,VALID,103.489,VALID,0.0,VALID,23.481,VALID,60.0,VALID,0.771,
2011-07-24, 02:18:04,VALID,1008.044,VALID,0.0,VALID,103.527,VALID,0.0,VALID,23.48,VALID,55.0,VALID,0.48,
2011-07-24, 02:19:04,VALID,1008.075,VALID,0.0,VALID,103.459,VALID,0.0,VALID,23.48,VALID,49.0,VALID,0.674,
2011-07-24, 02:20:04,VALID,1008.082,VALID,0.0,VALID,103.466,VALID,0.106,VALID,23.46,VALID,49.0,VALID,0.502,
2011-07-24, 02:21:04,VALID,1008.073,VALID,0.0,VALID,103.443,VALID,0.106,VALID,23.441,VALID,49.0,VALID,0.259,
2011-07-24, 02:22:04,VALID,1008.089,VALID,0.0,VALID,103.497,VALID,0.106,VALID,23.441,VALID,49.0,VALID,0.188,
2011-07-24, 02:23:04,VALID,1008.067,VALID,0.0,VALID,103.55,VALID,0.0,VALID,23.441,VALID,68.0,VALID,0.593,
2011-07-24, 02:24:04,VALID,1008.054,VALID,0.0,VALID,103.527,VALID,0.106,VALID,23.439,VALID,70.0,VALID,0.38,
2011-07-24, 02:25:04,VALID,1008.029,VALID,0.0,VALID,103.565,VALID,0.0,VALID,23.441,VALID,70.0,VALID,0.292,
2011-07-24, 02:26:04,VALID,1008.026,VALID,0.0,VALID,103.558,VALID,0.106,VALID,23.46,VALID,70.0,VALID,0.657,
2011-07-24, 02:27:04,VALID,1007.993,VALID,0.0,VALID,103.596,VALID,0.0,VALID,23.46,VALID,69.0,VALID,0.481,
2011-07-24, 02:28:04,VALID,1007.933,VALID,0.0,VALID,103.588,VALID,0.0,VALID,23.46,VALID,56.0,VALID,0.663,
2011-07-24, 02:29:04,VALID,1007.935,VALID,0.0,VALID,103.565,VALID,0.0,VALID,23.481,VALID,52.0,VALID,0.623,
2011-07-24, 02:30:04,VALID,1007.931,VALID,0.0,VALID,103.527,VALID,0.0,VALID,23.421,VALID,39.0,VALID,0.33,
2011-07-24, 02:31:04,VALID,1007.909,VALID,0.0,VALID,103.558,VALID,0.0,VALID,23.421,VALID,39.0,VALID,0.203,
2011-07-24, 02:32:04,VALID,1007.901,VALID,0.0,VALID,103.596,VALID,0.106,VALID,23.421,VALID,39.0,VALID,0.101,
2011-07-24, 02:33:04,VALID,1007.928,VALID,0.0,VALID,103.68,VALID,0.0,VALID,23.421,VALID,39.0,VALID,0.139,
2011-07-24, 02:34:04,VALID,1007.932,VALID,0.0,VALID,103.718,VALID,0.0,VALID,23.421,VALID,39.0,VALID,0.0,
2011-07-24, 02:35:04,VALID,1007.927,VALID,0.0,VALID,103.733,VALID,0.106,VALID,23.421,VALID,39.0,VALID,0.0,
2011-07-24, 02:36:04,VALID,1007.933,VALID,0.0,VALID,103.718,VALID,0.0,VALID,23.421,VALID,39.0,VALID,0.0,
2011-07-24, 02:37:04,VALID,1007.925,VALID,0.0,VALID,103.703,VALID,0.106,VALID,23.421,VALID,39.0,VALID,0.119,
2011-07-24, 02:38:04,VALID,1007.903,VALID,0.0,VALID,103.771,VALID,0.106,VALID,23.421,VALID,39.0,VALID,0.2,
2011-07-24, 02:39:04,VALID,1007.898,VALID,0.0,VALID,103.825,VALID,0.106,VALID,23.421,VALID,39.0,VALID,0.25,
2011-07-24, 02:40:04,VALID,1007.907,VALID,0.0,VALID,103.893,VALID,0.0,VALID,23.421,VALID,39.0,VALID,0.002,
2011-07-24, 02:41:04,VALID,1007.904,VALID,0.0,VALID,103.916,VALID,0.0,VALID,23.402,VALID,39.0,VALID,0.125,
2011-07-24, 02:42:04,VALID,1007.861,VALID,0.0,VALID,103.962,VALID,0.0,VALID,23.402,VALID,39.0,VALID,0.228,
2011-07-24, 02:43:04,VALID,1007.823,VALID,0.0,VALID,103.954,VALID,0.0,VALID,23.382,VALID,39.0,VALID,0.393,
2011-07-24, 02:44:04,VALID,1007.813,VALID,0.0,VALID,103.947,VALID,0.106,VALID,23.363,VALID,59.0,VALID,1.285,
2011-07-24, 02:45:04,VALID,1007.798,VALID,0.0,VALID,103.87,VALID,0.106,VALID,23.363,VALID,58.0,VALID,0.543,
2011-07-24, 02:46:04,VALID,1007.824,VALID,0.0,VALID,103.794,VALID,0.106,VALID,23.363,VALID,52.0,VALID,0.584,
2011-07-24, 02:47:04,VALID,1007.823,VALID,0.0,VALID,103.756,VALID,0.0,VALID,23.363,VALID,53.0,VALID,0.492,
2011-07-24, 02:48:04,VALID,1007.833,VALID,0.0,VALID,103.726,VALID,0.0,VALID,23.363,VALID,53.0,VALID,0.359,
2011-07-24, 02:49:04,VALID,1007.859,VALID,0.0,VALID,103.726,VALID,0.0,VALID,23.342,VALID,58.0,VALID,0.798,
2011-07-24, 02:50:04,VALID,1007.858,VALID,0.0,VALID,103.779,VALID,0.0,VALID,23.363,VALID,91.0,VALID,0.749,
2011-07-24, 02:51:04,VALID,1007.885,VALID,0.0,VALID,103.741,VALID,0.0,VALID,23.382,VALID,88.0,VALID,0.461,
2011-07-24, 02:52:04,VALID,1007.857,VALID,0.0,VALID,103.726,VALID,0.0,VALID,23.382,VALID,87.0,VALID,0.29,
2011-07-24, 02:53:04,VALID,1007.866,VALID,0.0,VALID,103.718,VALID,0.0,VALID,23.382,VALID,77.0,VALID,0.593,
2011-07-24, 02:54:04,VALID,1007.827,VALID,0.0,VALID,103.68,VALID,0.0,VALID,23.402,VALID,77.0,VALID,0.648,
2011-07-24, 02:55:04,VALID,1007.82,VALID,0.0,VALID,103.642,VALID,0.106,VALID,23.402,VALID,73.0,VALID,0.544,
2011-07-24, 02:56:04,VALID,1007.799,VALID,0.0,VALID,103.634,VALID,0.0,VALID,23.404,VALID,73.0,VALID,0.441,
2011-07-24, 02:57:04,VALID,1007.808,VALID,0.0,VALID,103.626,VALID,0.0,VALID,23.402,VALID,64.0,VALID,0.464,
2011-07-24, 02:58:04,VALID,1007.809,VALID,0.0,VALID,103.626,VALID,0.0,VALID,23.382,VALID,64.0,VALID,0.416,
2011-07-24, 02:59:04,VALID,1007.797,VALID,0.0,VALID,103.634,VALID,0.0,VALID,23.363,VALID,64.0,VALID,0.547,
2011-07-24, 03:00:04,VALID,1007.809,VALID,0.0,VALID,103.664,VALID,0.106,VALID,23.363,VALID,65.0,VALID,0.529,
2011-07-24, 03:01:04,VALID,1007.776,VALID,0.0,VALID,103.695,VALID,0.106,VALID,23.363,VALID,65.0,VALID,0.635,
2011-07-24, 03:02:04,VALID,1007.817,VALID,0.0,VALID,103.718,VALID,0.0,VALID,23.363,VALID,65.0,VALID,0.535,
2011-07-24, 03:03:04,VALID,1007.825,VALID,0.0,VALID,103.779,VALID,0.0,VALID,23.343,VALID,87.0,VALID,0.599,
2011-07-24, 03:04:04,VALID,1007.818,VALID,0.0,VALID,103.84,VALID,0.0,VALID,23.363,VALID,94.0,VALID,0.416,
2011-07-24, 03:05:04,VALID,1007.832,VALID,0.0,VALID,103.84,VALID,0.106,VALID,23.363,VALID,108.0,VALID,0.828,
2011-07-24, 03:06:04,VALID,1007.847,VALID,0.0,VALID,103.794,VALID,0.0,VALID,23.382,VALID,113.0,VALID,0.544,
2011-07-24, 03:07:04,VALID,1007.847,VALID,0.0,VALID,103.787,VALID,0.0,VALID,23.402,VALID,113.0,VALID,0.271,
2011-07-24, 03:08:04,VALID,1007.899,VALID,0.0,VALID,103.756,VALID,0.0,VALID,23.402,VALID,118.0,VALID,0.727,
2011-07-24, 03:09:04,VALID,1007.927,VALID,0.0,VALID,103.695,VALID,0.0,VALID,23.421,VALID,152.0,VALID,0.832,
2011-07-24, 03:10:04,VALID,1007.961,VALID,0.0,VALID,103.649,VALID,0.0,VALID,23.402,VALID,160.0,VALID,0.776,
2011-07-24, 03:11:04,VALID,1007.966,VALID,0.0,VALID,103.634,VALID,0.0,VALID,23.342,VALID,169.0,VALID,0.931,
2011-07-24, 03:12:04,VALID,1007.957,VALID,0.0,VALID,103.664,VALID,0.0,VALID,23.343,VALID,161.0,VALID,0.693,
2011-07-24, 03:13:04,VALID,1007.956,VALID,0.0,VALID,103.703,VALID,0.0,VALID,23.324,VALID,161.0,VALID,0.668,
2011-07-24, 03:14:04,VALID,1007.948,VALID,0.0,VALID,103.794,VALID,0.0,VALID,23.324,VALID,157.0,VALID,0.852,
2011-07-24, 03:15:04,VALID,1007.956,VALID,0.0,VALID,103.886,VALID,0.0,VALID,23.324,VALID,174.0,VALID,0.664,
2011-07-24, 03:16:04,VALID,1007.948,VALID,0.0,VALID,103.97,VALID,0.0,VALID,23.324,VALID,173.0,VALID,0.361,
2011-07-24, 03:17:04,VALID,1007.934,VALID,0.0,VALID,104.0,VALID,0.0,VALID,23.324,VALID,173.0,VALID,0.511,
2011-07-24, 03:18:04,VALID,1007.937,VALID,0.0,VALID,104.0,VALID,0.0,VALID,23.324,VALID,172.0,VALID,0.464,
2011-07-24, 03:19:04,VALID,1007.945,VALID,0.0,VALID,104.0,VALID,0.0,VALID,23.304,VALID,172.0,VALID,0.365,
2011-07-24, 03:20:04,VALID,1007.96,VALID,0.0,VALID,104.0,VALID,0.0,VALID,23.304,VALID,129.0,VALID,0.8,
2011-07-24, 03:21:04,VALID,1007.955,VALID,0.0,VALID,104.0,VALID,0.0,VALID,23.304,VALID,130.0,VALID,0.477,
2011-07-24, 03:22:04,VALID,1007.959,VALID,0.0,VALID,104.0,VALID,0.0,VALID,23.324,VALID,140.0,VALID,0.577,
2011-07-24, 03:23:04,VALID,1007.957,VALID,0.0,VALID,104.0,VALID,0.0,VALID,23.324,VALID,151.0,VALID,0.619,
2011-07-24, 03:24:04,VALID,1007.952,VALID,0.0,VALID,104.0,VALID,0.0,VALID,23.304,VALID,151.0,VALID,0.388,
2011-07-24, 03:25:04,VALID,1007.917,VALID,0.0,VALID,104.0,VALID,0.0,VALID,23.304,VALID,151.0,VALID,0.372,
2011-07-24, 03:26:04,VALID,1007.929,VALID,0.0,VALID,104.0,VALID,0.0,VALID,23.304,VALID,151.0,VALID,0.418,
2011-07-24, 03:27:04,VALID,1007.945,VALID,0.0,VALID,104.0,VALID,0.106,VALID,23.304,VALID,151.0,VALID,0.212,
2011-07-24, 03:28:04,VALID,1007.913,VALID,0.0,VALID,104.0,VALID,0.0,VALID,23.326,VALID,145.0,VALID,0.529,
2011-07-24, 03:29:04,VALID,1007.931,VALID,0.0,VALID,104.0,VALID,0.106,VALID,23.324,VALID,128.0,VALID,0.915,
2011-07-24, 03:30:04,VALID,1007.933,VALID,0.0,VALID,104.0,VALID,0.0,VALID,23.324,VALID,128.0,VALID,0.19,
2011-07-24, 03:31:04,VALID,1007.93,VALID,0.0,VALID,104.0,VALID,0.106,VALID,23.303,VALID,93.0,VALID,0.87,
2011-07-24, 03:32:04,VALID,1007.92,VALID,0.0,VALID,104.0,VALID,0.0,VALID,23.343,VALID,127.0,VALID,0.348,
2011-07-24, 03:33:04,VALID,1007.914,VALID,0.0,VALID,104.0,VALID,0.0,VALID,23.384,VALID,127.0,VALID,0.25,
2011-07-24, 03:34:04,VALID,1007.954,VALID,0.0,VALID,104.0,VALID,0.0,VALID,23.363,VALID,78.0,VALID,0.68,
2011-07-24, 03:35:04,VALID,1007.967,VALID,0.0,VALID,104.0,VALID,0.0,VALID,23.382,VALID,90.0,VALID,0.365,
2011-07-24, 03:36:04,VALID,1007.935,VALID,0.0,VALID,104.0,VALID,0.0,VALID,23.423,VALID,90.0,VALID,0.126,
2011-07-24, 03:37:04,VALID,1007.923,VALID,0.0,VALID,104.0,VALID,0.0,VALID,23.441,VALID,90.0,VALID,0.648,
2011-07-24, 03:38:04,VALID,1007.927,VALID,0.0,VALID,104.0,VALID,0.0,VALID,23.421,VALID,91.0,VALID,0.585,
2011-07-24, 03:39:04,VALID,1007.908,VALID,0.0,VALID,104.0,VALID,0.0,VALID,23.421,VALID,83.0,VALID,0.994,
2011-07-24, 03:40:04,VALID,1007.885,VALID,0.0,VALID,104.0,VALID,0.0,VALID,23.441,VALID,84.0,VALID,0.72,
2011-07-24, 03:41:04,VALID,1007.883,VALID,0.0,VALID,104.0,VALID,0.0,VALID,23.46,VALID,104.0,VALID,0.777,